BOBCAT-1 (46922 NORAD) Tracking and Keplerian Element Data

This shows tracking and keplerian element data for the satellite.

Feedback or suggestion? Click here.




ElementValue
Catalog46922
NameBOBCAT-1
Epoch Orbit1088
Epoch Day14.38794359
Epoch Year2021
RAAN22.4827
Inclination51.6438
Eccentricity8.44E-05
Argument of Perigee207.1278
Mean Anonmoly152.9668
Mean Motion15.51935583
Decay Rate6.705E-05
L11 46922U 98067RS 21014.38794359 .00006705 00000-0 11716-3 0 9996
L22 46922 51.6438 22.4827 0000844 207.1278 152.9668 15.51935583 10889

Live tracking and technical data element details for BOBCAT-1 (NORAD 46922). BOBCAT-1 can be tracked NOW for your location showing map with azimuth and elevation plus other details from your city location.

Track the satellite on the map from your city or location and see movement details for azimuth, elevation, latitude, longitude, range, height, and movement on the map or in text.







IsCatalogInMostPopularTable: catalog: 46922, numindb: 22
Update: records affected: 1



GetName: 46922 BOBCAT-1

Hit Count: updated at: Fri, 15 Jan 2021 23:17:44 GMT